• In Austria
  • List of Countries
  • For 7 days
  • Water Temperature
  • Satellite Maps
  • Weather Map
  • News
  • Weather Widgets
  • user-avatar
    Login

    Hourly Weather Kerns

    Today, 19 June, Tuesday

    Time Temperature Precipitation Wind Pressure Humidity
    00:00 +17°C° 0 mm 5 mps 763 mmHg 55%
    01:00 +16°C° 0 mm 5 mps 763 mmHg 53%
    02:00 +16°C° 0 mm 6 mps 763 mmHg 50%
    03:00 +16°C° 0 mm 6 mps 763 mmHg 48%
    04:00 +16°C° 0 mm 6 mps 763 mmHg 44%
    05:00 +16°C° 0 mm 6 mps 763 mmHg 44%
    06:00 +15°C° 0 mm 6 mps 764 mmHg 44%
    07:00 +15°C° 0 mm 6 mps 764 mmHg 44%
    08:00 +17°C° 0 mm 6 mps 764 mmHg 42%
    09:00 +20°C° 0 mm 6 mps 764 mmHg 41%
    10:00 +22°C° 0 mm 6 mps 764 mmHg 39%
    11:00 +23°C° 0 mm 6 mps 764 mmHg 38%
    12:00 +26°C° 0 mm 6 mps 763 mmHg 36%
    13:00 +27°C° 0 mm 6 mps 763 mmHg 34%
    14:00 +26°C° 0 mm 6 mps 763 mmHg 36%
    15:00 +24°C° 0 mm 6 mps 763 mmHg 39%
    16:00 +25°C° 0 mm 5 mps 763 mmHg 43%
    17:00 +21°C° 0 mm 5 mps 763 mmHg 51%
    18:00 +19°C° 0 mm 5 mps 763 mmHg 60%
    19:00 +15°C° 0 mm 5 mps 763 mmHg 68%
    20:00 +14°C° 0 mm 5 mps 764 mmHg 67%
    21:00 +14°C° 0 mm 5 mps 764 mmHg 67%
    22:00 +13°C° 0 mm 5 mps 764 mmHg 66%
    23:00 +13°C° 0 mm 5 mps 764 mmHg 66%

    Tomorrow, 20 June, Wednesday

    Time Temperature Precipitation Wind Pressure Humidity
    00:00 +13°C° 0 mm 5 mps 764 mmHg 65%
    01:00 +13°C° 0 mm 5 mps 764 mmHg 64%
    02:00 +12°C° 0 mm 5 mps 764 mmHg 66%
    03:00 +12°C° 0 mm 5 mps 764 mmHg 68%
    04:00 +12°C° 0 mm 5 mps 764 mmHg 70%
    05:00 +12°C° 0 mm 5 mps 764 mmHg 74%
    06:00 +12°C° 0 mm 5 mps 764 mmHg 77%
    07:00 +12°C° 0 mm 5 mps 764 mmHg 80%
    08:00 +15°C° 0 mm 5 mps 764 mmHg 73%
    09:00 +19°C° 0 mm 5 mps 764 mmHg 65%
    10:00 +22°C° 0 mm 5 mps 764 mmHg 58%
    11:00 +23°C° 0 mm 6 mps 764 mmHg 54%
    12:00 +24°C° 0 mm 6 mps 763 mmHg 51%
    13:00 +27°C° 0 mm 6 mps 763 mmHg 47%
    14:00 +26°C° 0 mm 6 mps 762 mmHg 50%
    15:00 +26°C° 0 mm 5 mps 762 mmHg 52%
    16:00 +25°C° 0 mm 5 mps 762 mmHg 55%
    17:00 +22°C° 0 mm 5 mps 762 mmHg 67%
    18:00 +19°C° 0 mm 5 mps 763 mmHg 79%
    19:00 +17°C° 0 mm 4 mps 763 mmHg 91%
    20:00 +15°C° 0 mm 4 mps 763 mmHg 92%
    21:00 +15°C° 0 mm 4 mps 764 mmHg 93%
    22:00 +14°C° 0 mm 4 mps 764 mmHg 94%
    23:00 +14°C° 0 mm 4 mps 764 mmHg 94%

    Day after tomorrow, 21 June, Thursday

    Time Temperature Precipitation Wind Pressure Humidity
    00:00 +14°C° 0 mm 4 mps 764 mmHg 94%
    01:00 +14°C° 0 mm 4 mps 764 mmHg 94%
    02:00 +13°C° 0 mm 4 mps 764 mmHg 94%
    03:00 +13°C° 0 mm 4 mps 763 mmHg 94%
    04:00 +13°C° 0 mm 4 mps 763 mmHg 93%
    05:00 +13°C° 0 mm 4 mps 763 mmHg 93%
    06:00 +13°C° 0 mm 4 mps 763 mmHg 94%
    07:00 +13°C° 0 mm 4 mps 764 mmHg 94%
    08:00 +16°C° 0 mm 5 mps 764 mmHg 85%
    09:00 +19°C° 0 mm 5 mps 764 mmHg 76%
    10:00 +22°C° 0 mm 5 mps 764 mmHg 67%
    11:00 +23°C° 0 mm 5 mps 764 mmHg 63%
    12:00 +26°C° 0 mm 5 mps 763 mmHg 59%
    13:00 +27°C° 0 mm 5 mps 763 mmHg 56%
    14:00 +26°C° 0 mm 5 mps 762 mmHg 58%
    15:00 +26°C° 0 mm 5 mps 762 mmHg 60%
    16:00 +25°C° 0 mm 5 mps 762 mmHg 63%
    17:00 +22°C° 0 mm 5 mps 762 mmHg 73%
    18:00 +20°C° 0 mm 5 mps 763 mmHg 82%
    19:00 +17°C° 0 mm 5 mps 763 mmHg 92%
    20:00 +17°C° 0 mm 5 mps 764 mmHg 93%
    21:00 +16°C° 0 mm 5 mps 764 mmHg 94%
    22:00 +16°C° 0 mm 5 mps 765 mmHg 95%
    23:00 +17°C° 0 mm 4 mps 764 mmHg 95%

    22 June, Friday

    Time Temperature Precipitation Wind Pressure Humidity
    00:00 +17°C° 0 mm 4 mps 764 mmHg 95%
    01:00 +17°C° 0 mm 4 mps 763 mmHg 95%
    02:00 +17°C° 0 mm 4 mps 763 mmHg 95%
    03:00 +16°C° 0 mm 5 mps 763 mmHg 95%
    04:00 +16°C° 0 mm 5 mps 762 mmHg 96%
    05:00 +16°C° 0 mm 5 mps 763 mmHg 96%
    06:00 +16°C° 0 mm 5 mps 763 mmHg 96%
    07:00 +17°C° 0 mm 4 mps 763 mmHg 96%
    08:00 +19°C° 0 mm 5 mps 763 mmHg 87%
    09:00 +21°C° 0 mm 5 mps 764 mmHg 78%
    10:00 +25°C° 0 mm 5 mps 764 mmHg 70%
    11:00 +26°C° 0 mm 5 mps 763 mmHg 67%
    12:00 +27°C° 0 mm 5 mps 763 mmHg 64%
    13:00 +28°C° 0 mm 5 mps 762 mmHg 61%
    14:00 +27°C° 0 mm 5 mps 762 mmHg 64%
    15:00 +27°C° 0 mm 5 mps 762 mmHg 66%
    16:00 +26°C° 0 mm 5 mps 761 mmHg 69%
    17:00 +25°C° 0.1 mm 5 mps 762 mmHg 78%
    18:00 +22°C° 0.1 mm 5 mps 762 mmHg 86%
    19:00 +21°C° 0.1 mm 5 mps 763 mmHg 95%
    20:00 +21°C° 0.1 mm 5 mps 763 mmHg 95%
    21:00 +20°C° 0.1 mm 5 mps 764 mmHg 96%
    22:00 +20°C° 0.1 mm 5 mps 764 mmHg 97%
    23:00 +20°C° 0.1 mm 5 mps 764 mmHg 97%

    23 June, Saturday

    Time Temperature Precipitation Wind Pressure Humidity
    00:00 +20°C° 0.1 mm 5 mps 763 mmHg 97%
    01:00 +20°C° 0.1 mm 5 mps 763 mmHg 97%
    02:00 +20°C° 0.1 mm 4 mps 762 mmHg 97%
    03:00 +20°C° 0.1 mm 4 mps 762 mmHg 97%
    04:00 +20°C° 0.1 mm 4 mps 762 mmHg 98%
    05:00 +20°C° 0.1 mm 4 mps 762 mmHg 98%
    06:00 +20°C° 0.1 mm 4 mps 763 mmHg 98%
    07:00 +21°C° 0.1 mm 4 mps 763 mmHg 98%
    08:00 +22°C° 0.2 mm 5 mps 763 mmHg 95%
    09:00 +22°C° 0.2 mm 5 mps 763 mmHg 92%
    10:00 +23°C° 0.2 mm 6 mps 764 mmHg 89%
    11:00 +23°C° 0.3 mm 6 mps 763 mmHg 88%
    12:00 +23°C° 0.3 mm 6 mps 763 mmHg 88%
    13:00 +24°C° 0.3 mm 6 mps 762 mmHg 87%
    14:00 +23°C° 0.2 mm 6 mps 762 mmHg 87%
    15:00 +23°C° 0.2 mm 6 mps 762 mmHg 87%
    16:00 +23°C° 0.2 mm 6 mps 762 mmHg 88%
    17:00 +22°C° 0.1 mm 6 mps 762 mmHg 91%
    18:00 +21°C° 0.1 mm 5 mps 762 mmHg 93%
    19:00 +21°C° 0.1 mm 5 mps 763 mmHg 96%
    20:00 +21°C° 0.1 mm 5 mps 763 mmHg 96%
    21:00 +21°C° 0.1 mm 5 mps 763 mmHg 96%
    22:00 +21°C° 0.1 mm 5 mps 764 mmHg 96%
    23:00 +21°C° 0.4 mm 5 mps 763 mmHg 96%

    24 June, Sunday

    Time Temperature Precipitation Wind Pressure Humidity
    00:00 +21°C° 0.4 mm 6 mps 763 mmHg 96%
    01:00 +22°C° 0.4 mm 6 mps 763 mmHg 96%
    02:00 +22°C° 0.2 mm 6 mps 762 mmHg 96%
    03:00 +22°C° 0.2 mm 6 mps 762 mmHg 96%
    04:00 +22°C° 0.2 mm 6 mps 762 mmHg 95%
    05:00 +21°C° 0.2 mm 6 mps 762 mmHg 96%
    06:00 +21°C° 0.2 mm 6 mps 762 mmHg 96%
    07:00 +21°C° 0.2 mm 6 mps 763 mmHg 96%
    08:00 +22°C° 0.1 mm 6 mps 763 mmHg 92%
    09:00 +23°C° 0.1 mm 6 mps 763 mmHg 88%
    10:00 +24°C° 0.1 mm 7 mps 764 mmHg 85%
    11:00 +26°C° 0 mm 7 mps 763 mmHg 79%
    12:00 +26°C° 0 mm 7 mps 762 mmHg 73%
    13:00 +27°C° 0 mm 7 mps 762 mmHg 66%
    14:00 +27°C° 0 mm 6 mps 762 mmHg 67%
    15:00 +27°C° 0 mm 6 mps 761 mmHg 67%
    16:00 +27°C° 0 mm 6 mps 761 mmHg 67%
    17:00 +24°C° 0.1 mm 6 mps 762 mmHg 76%
    18:00 +23°C° 0.1 mm 6 mps 762 mmHg 85%
    19:00 +22°C° 0.1 mm 5 mps 763 mmHg 94%
    20:00 +22°C° 0.2 mm 5 mps 763 mmHg 95%
    21:00 +22°C° 0.2 mm 6 mps 763 mmHg 96%
    22:00 +22°C° 0.2 mm 6 mps 763 mmHg 97%
    23:00 +22°C° 0.1 mm 6 mps 763 mmHg 96%
    Show more